Regional Weather Roundup
Issued by NWS

Home | Current Version | Previous Version | Graphics & Text | Print | Product List | Glossary On
Versions: 1 2 3 4 5 6 7 8 9 10 11 12 13 14 15 16 17 18 19 20 21 22 23 24 25 26 27 28 29 30 31 32 33 34 35 36 37 38 39 40 41 42 43 44 45 46 47 48 49 50
098
ASUS45 KCYS 270610
RWRWY

WYOMING REGIONAL WEATHER ROUNDUP
NATIONAL WEATHER SERVICE CHEYENNE WY
1200 AM MDT MON MAR 27 2017

NOTE:  "FAIR" INDICATES FEW OR NO CLOUDS BELOW 12,000 FEET
WITH NO SIGNIFICANT WEATHER AND/OR OBSTRUCTIONS TO VISIBILITY.

WYZ001-270700-
YELLOWSTONE NATIONAL PARK

CITY           SKY/WX    TMP DP  RH WIND       PRES   REMARKS
LK YELLOWSTONE   N/A     28  26  92 CALM      29.93F
6HR MIN TEMP:  28; 6HR MAX TEMP:  34;

W YELLOWSTONE  NOT AVBL

$$
WYZ002>013-054>058-071-098>099-270700-
NORTHERN WYOMING

CITY           SKY/WX    TMP DP  RH WIND       PRES   REMARKS
JACKSON        MOCLDY    34  32  93 SW8       29.94F WCI  27
CODY           CLOUDY    47  21  35 VRB6      29.86F
GREYBULL       MOCLDY    48  31  51 NW10      29.83S
6HR MIN TEMP:  47; 6HR MAX TEMP:  56;

WORLAND        FAIR      45  36  70 SE8       29.81F
6HR MIN TEMP:  45; 6HR MAX TEMP:  55;

SHERIDAN       MOCLDY    41  32  70 CALM      29.84F
6HR MIN TEMP:  40; 6HR MAX TEMP:  56;

BUFFALO        FAIR      42  29  59 SE5       29.87F
6HR MIN TEMP:  42; 6HR MAX TEMP:  52;

GILLETTE       FAIR      39  34  82 S12       29.89F WCI  32
6HR MIN TEMP:  38; 6HR MAX TEMP:  53;

HULETT         FAIR      34  30  86 CALM      29.91F
NEWCASTLE      FAIR      32  32 100 CALM      29.95S

$$
WYZ014>020-022>026-101>103-270700-
CENTRAL WYOMING

CITY           SKY/WX    TMP DP  RH WIND       PRES   REMARKS
BIG PINEY      MOCLDY    30  25  81 W12       29.96F WCI  20
6HR MIN TEMP:  30; 6HR MAX TEMP:  42;

PINEDALE       FAIR      30  23  74 NW3       29.97S
DUBOIS         FAIR      30  23  74 W10       29.91F WCI  21
LANDER         CLOUDY    44  21  40 SE3       29.87S
6HR MIN TEMP:  43; 6HR MAX TEMP:  53;

RIVERTON       CLOUDY    43  23  45 NW15      29.87F
6HR MIN TEMP:  43; 6HR MAX TEMP:  52;

CASPER         FAIR      37  31  78 CALM      29.89F
6HR MIN TEMP:  36; 6HR MAX TEMP:  50;

DOUGLAS        FAIR      37  33  85 SE9       29.92F WCI  30
6HR MIN TEMP:  35; 6HR MAX TEMP:  51;


$$
WYZ021-027>030-104>119-270700-
SOUTHERN WYOMING

CITY           SKY/WX    TMP DP  RH WIND       PRES   REMARKS
EVANSTON       CLOUDY    35  24  64 SW9       29.96F WCI  28
6HR MIN TEMP:  33; 6HR MAX TEMP:  42;

KEMMERER         N/A     32  27  80 N6        29.97F WCI  26
ROCK SPRINGS   MOCLDY    36  27  69 SW8       29.98F WCI  30
6HR MIN TEMP:  36; 6HR MAX TEMP:  46;

DIXON            N/A     34  26  72 CALM      30.00S
RAWLINS        FAIR      33  20  58 SW7       29.96S WCI  27
6HR MIN TEMP:  33; 6HR MAX TEMP:  48;

SARATOGA       FAIR      30  23  74 CALM      29.96F
LARAMIE        FAIR      31  30  96 SE9       29.95F WCI  23
6HR MIN TEMP:  30; 6HR MAX TEMP:  42;

CHEYENNE       FAIR      35  31  85 SW5       29.97F WCI  31
6HR MIN TEMP:  34; 6HR MAX TEMP:  44;

TORRINGTON     FAIR      31  29  92 E5        29.95S WCI  26
6HR MIN TEMP:  31; 6HR MAX TEMP:  49;

PINE BLUFFS    FAIR      28  27  93 W6        29.98F WCI  22

$$




USA.gov is the U.S. government's official web portal to all federal, state and local government web resources and services.